Total_Precipitation_Accumulation
0.15 0.30 0.58 0.83 0.94 1.10 1.02 0.93 0.90 0.83 0.78 0.82 0.89 1.02 1.17 1.22 1.15 1.11 1.09 1.12 1.20 1.31 1.44 1.45 1.42 1.34 1.33 1.30 1.16 0.98 0.80 0.66 0.56 0.52 0.47 0.37 0.26 0.21 0.19 0.18 0.19 0.18 0.16
0.22 0.37 0.55 0.70 0.73 0.84 1.01 1.02 0.96 0.98 1.07 1.31 1.56 1.87 2.09 2.07 1.97 1.85 1.79 1.79 1.76 1.70 1.68 1.66 1.57 1.46 1.37 1.25 1.13 1.02 0.93 0.82 0.71 0.62 0.57 0.44 0.32 0.20 0.14 0.13 0.13 0.12 0.10
0.21 0.37 0.45 0.58 0.73 0.96 1.15 1.21 1.24 1.43 1.68 1.97 2.39 2.78 2.84 2.78 2.75 2.56 2.46 2.29 2.08 1.94 1.86 1.73 1.64 1.51 1.36 1.25 1.14 1.03 0.96 0.84 0.71 0.60 0.55 0.47 0.40 0.29 0.18 0.13 0.11 0.10 0.08
0.14 0.25 0.41 0.60 0.80 1.08 1.30 1.45 1.63 1.96 2.33 2.63 2.95 3.20 3.27 3.22 3.15 2.88 2.63 2.32 2.05 1.89 1.76 1.63 1.50 1.38 1.25 1.13 1.01 0.93 0.83 0.73 0.63 0.52 0.44 0.38 0.32 0.30 0.24 0.14 0.10 0.08 0.07
0.11 0.17 0.29 0.49 0.72 1.01 1.33 1.58 1.77 2.18 2.60 2.90 3.08 3.28 3.41 3.37 3.16 2.73 2.30 2.01 1.81 1.64 1.47 1.28 1.15 1.08 1.00 0.88 0.74 0.64 0.55 0.48 0.41 0.36 0.32 0.29 0.26 0.24 0.25 0.20 0.12 0.08 0.07
0.13 0.19 0.27 0.39 0.59 0.83 1.11 1.35 1.58 2.09 2.59 2.93 3.11 3.25 3.29 3.06 2.66 2.24 1.88 1.66 1.51 1.38 1.22 1.08 0.93 0.80 0.67 0.54 0.43 0.36 0.31 0.28 0.26 0.23 0.21 0.19 0.19 0.18 0.20 0.20 0.14 0.11 0.07
0.15 0.20 0.29 0.38 0.54 0.73 1.00 1.24 1.48 1.82 2.21 2.45 2.53 2.57 2.51 2.35 2.18 1.97 1.71 1.47 1.28 1.11 0.92 0.71 0.55 0.44 0.35 0.27 0.22 0.19 0.16 0.14 0.13 0.12 0.12 0.11 0.11 0.11 0.14 0.17 0.15 0.12 0.07
0.18 0.25 0.36 0.46 0.55 0.68 0.92 1.21 1.38 1.57 1.75 1.82 1.85 1.74 1.67 1.58 1.49 1.32 1.13 0.96 0.79 0.66 0.53 0.38 0.29 0.23 0.17 0.14 0.13 0.12 0.11 0.10 0.11 0.11 0.13 0.14 0.13 0.14 0.17 0.21 0.24 0.21 0.12
0.25 0.34 0.43 0.49 0.57 0.64 0.76 0.91 1.03 1.15 1.15 1.07 1.04 1.02 0.99 0.93 0.83 0.70 0.57 0.48 0.41 0.34 0.27 0.21 0.16 0.13 0.12 0.12 0.13 0.13 0.13 0.14 0.15 0.15 0.15 0.15 0.13 0.13 0.13 0.15 0.20 0.27 0.23
0.32 0.39 0.47 0.50 0.53 0.55 0.61 0.64 0.65 0.66 0.65 0.64 0.62 0.62 0.61 0.56 0.51 0.47 0.43 0.38 0.32 0.26 0.21 0.18 0.16 0.14 0.13 0.13 0.14 0.15 0.15 0.17 0.16 0.15 0.14 0.14 0.13 0.14 0.15 0.16 0.18 0.25 0.32
0.41 0.49 0.50 0.47 0.45 0.44 0.45 0.47 0.48 0.46 0.45 0.46 0.45 0.43 0.40 0.36 0.34 0.32 0.29 0.26 0.21 0.17 0.15 0.14 0.13 0.12 0.12 0.13 0.14 0.14 0.13 0.13 0.12 0.11 0.11 0.12 0.12 0.14 0.14 0.17 0.21 0.26 0.33
0.48 0.51 0.49 0.43 0.39 0.40 0.41 0.41 0.42 0.43 0.42 0.39 0.36 0.33 0.30 0.27 0.24 0.22 0.20 0.18 0.17 0.16 0.15 0.15 0.14 0.13 0.12 0.12 0.13 0.12 0.11 0.11 0.11 0.10 0.11 0.10 0.11 0.13 0.14 0.17 0.20 0.23 0.30
0.64 0.61 0.55 0.46 0.39 0.37 0.36 0.34 0.33 0.31 0.27 0.22 0.21 0.21 0.22 0.21 0.20 0.19 0.18 0.17 0.16 0.15 0.15 0.14 0.13 0.12 0.11 0.11 0.12 0.10 0.09 0.09 0.09 0.10 0.11 0.11 0.13 0.15 0.18 0.22 0.24 0.27 0.29
0.69 0.59 0.52 0.44 0.38 0.35 0.32 0.30 0.27 0.24 0.19 0.16 0.14 0.14 0.16 0.17 0.18 0.17 0.16 0.15 0.14 0.14 0.13 0.10 0.09 0.10 0.10 0.08 0.06 0.05 0.06 0.06 0.07 0.08 0.11 0.13 0.17 0.21 0.24 0.25 0.28 0.35 0.40
0.75 0.67 0.57 0.50 0.42 0.36 0.31 0.27 0.25 0.21 0.16 0.14 0.14 0.15 0.15 0.15 0.16 0.16 0.15 0.14 0.13 0.11 0.09 0.08 0.08 0.08 0.07 0.04 0.02 0.02 0.02 0.05 0.07 0.09 0.11 0.12 0.16 0.21 0.25 0.27 0.34 0.46 0.53
0.81 0.73 0.63 0.54 0.47 0.44 0.42 0.37 0.32 0.26 0.23 0.22 0.21 0.19 0.16 0.15 0.16 0.15 0.15 0.13 0.12 0.09 0.07 0.06 0.05 0.05 0.03 0.01 0.01 0.00 0.02 0.05 0.10 0.14 0.13 0.09 0.10 0.12 0.17 0.25 0.33 0.42 0.52
0.93 0.85 0.74 0.65 0.60 0.55 0.50 0.45 0.39 0.34 0.30 0.26 0.23 0.19 0.16 0.15 0.14 0.12 0.12 0.12 0.09 0.07 0.06 0.05 0.05 0.05 0.03 0.00 0.00 0.00 0.01 0.07 0.14 0.17 0.15 0.10 0.08 0.14 0.19 0.22 0.24 0.32 0.44
1.03 0.91 0.80 0.75 0.71 0.64 0.57 0.49 0.40 0.32 0.26 0.22 0.19 0.16 0.13 0.12 0.11 0.10 0.08 0.07 0.06 0.06 0.06 0.05 0.05 0.07 0.04 0.00 0.00 0.00 0.03 0.09 0.12 0.13 0.13 0.15 0.18 0.18 0.16 0.18 0.26 0.41 0.54
0.94 0.87 0.78 0.73 0.70 0.62 0.50 0.37 0.28 0.22 0.18 0.15 0.13 0.11 0.09 0.07 0.06 0.06 0.06 0.06 0.06 0.06 0.05 0.04 0.05 0.08 0.06 0.01 0.00 0.00 0.03 0.06 0.08 0.09 0.11 0.14 0.19 0.17 0.21 0.29 0.44 0.63 0.82
0.77 0.76 0.74 0.68 0.58 0.46 0.32 0.23 0.19 0.16 0.13 0.11 0.09 0.07 0.05 0.04 0.05 0.06 0.07 0.06 0.06 0.06 0.04 0.04 0.05 0.08 0.09 0.02 0.00 0.00 0.03 0.05 0.06 0.09 0.13 0.17 0.20 0.20 0.32 0.41 0.60 0.83 0.96
0.67 0.64 0.59 0.53 0.43 0.31 0.22 0.19 0.15 0.12 0.08 0.05 0.03 0.03 0.03 0.03 0.03 0.05 0.07 0.07 0.07 0.08 0.07 0.07 0.08 0.09 0.06 0.03 0.00 0.01 0.03 0.04 0.08 0.15 0.22 0.28 0.28 0.27 0.39 0.56 0.72 0.97 1.01
0.59 0.55 0.48 0.39 0.28 0.19 0.15 0.15 0.12 0.06 0.03 0.02 0.03 0.03 0.02 0.01 0.02 0.05 0.08 0.08 0.08 0.08 0.08 0.08 0.08 0.09 0.08 0.05 0.01 0.00 0.01 0.03 0.11 0.25 0.33 0.34 0.32 0.35 0.52 0.67 0.87 1.11 1.20
0.47 0.38 0.30 0.24 0.18 0.13 0.10 0.10 0.07 0.03 0.02 0.03 0.04 0.04 0.03 0.03 0.02 0.04 0.07 0.07 0.08 0.08 0.07 0.07 0.07 0.08 0.10 0.08 0.01 0.01 0.02 0.04 0.11 0.27 0.40 0.41 0.37 0.54 0.81 0.99 1.10 1.27 1.28
0.30 0.22 0.16 0.13 0.11 0.08 0.07 0.06 0.04 0.02 0.04 0.06 0.05 0.05 0.06 0.06 0.05 0.06 0.04 0.04 0.06 0.06 0.07 0.08 0.09 0.10 0.12 0.08 0.04 0.04 0.06 0.09 0.13 0.22 0.38 0.51 0.57 0.74 1.01 1.21 1.31 1.35 1.25
0.15 0.11 0.10 0.09 0.07 0.05 0.04 0.03 0.03 0.03 0.05 0.06 0.06 0.06 0.06 0.06 0.07 0.07 0.03 0.02 0.03 0.02 0.03 0.06 0.08 0.10 0.10 0.06 0.06 0.08 0.10 0.12 0.17 0.22 0.34 0.50 0.61 0.82 1.03 1.16 1.19 1.15 1.07
0.09 0.07 0.06 0.05 0.03 0.03 0.02 0.02 0.01 0.02 0.05 0.06 0.05 0.05 0.04 0.04 0.03 0.06 0.07 0.02 0.01 0.01 0.01 0.03 0.05 0.06 0.06 0.05 0.05 0.07 0.12 0.16 0.22 0.29 0.44 0.58 0.69 0.84 0.97 1.04 1.03 0.97 0.89